{"data":{"norad_id":56961,"epoch":"2026-05-31T12:48:06.128064Z","epoch_age_seconds":9873957,"freshness":"OLD","line1":"1 56961U 23084AF  26151.53340426  .07996038  26164-5  98774-3 0  9990","line2":"2 56961  97.5464 315.9673 0014332 270.4834  89.4821 16.35905726166626","mean_motion":16.35905726,"eccentricity":0.0014332,"inclination_deg":97.5464,"raan_deg":315.9673,"arg_perigee_deg":270.4834,"mean_anomaly_deg":89.4821,"bstar":0.00098774,"rev_number":16662,"period_min":88.024632294734,"perigee_km":167.32213300282,"apogee_km":186.11096521598,"semimajor_km":6554.8535491094,"source":"CELESTRAK","updated_at":"2026-06-01T09:00:19.862630Z"}}